Regional Weather Roundup
Issued by NWS State College, PA

Home | Current Version | Previous Version | Text Only | Print | Product List | Glossary Off
Versions: 1 2 3 4 5 6 7 8 9 10 11 12 13 14 15 16 17 18 19 20 21 22 23 24 25 26 27 28 29 30 31 32 33 34 35 36 37 38 39 40 41 42 43 44 45 46 47 48 49 50

000
ASUS41 KCTP 230710
RWRCTP

REGIONAL WEATHER ROUNDUP
NATIONAL WEATHER SERVICE STATE COLLEGE PA
300 AM EDT SAT AUG 23 2014

Note: "fair" indicates few or no clouds below 12,000 feet with no
significant weather and/or obstructions to visibility.

* = STATION THAT DOES NOT REPORT PRECIPITATION /E.G. RAIN...SNOW...ETC/
    THUNDER OR FOG.

PAZ002>004-007>009-013>016-020>023-029>032-230800-
WESTERN PENNSYLVANIA

CITY           SKY/WX    TMP DP  RH WIND       PRES   REMARKS
ERIE           PTCLDY    64  61  88 CALM      29.98F FOG
MEADVILLE      MOCLDY    64  62  93 NE3       30.00F FOG
FRANKLIN*      CLOUDY    63  61  94 CALM      30.01F VSB 1/4
NEW CASTLE     NOT AVBL
BEAVER COUNTY  NOT AVBL
BUTLER*          N/A     64  63  94 CALM      30.00F VSB 3/4
PITTSBURGH INT FOG       69  69 100 NW3       29.98S VSB 1/4
PITTSBURGH     MOCLDY    70  68  93 CALM      29.98S FOG
INDIANA*       CLOUDY    68  68 100 CALM      30.03S FOG
LATROBE        CLOUDY    70  70 100 CALM      29.99F FOG
WASHINGTON CO* CLOUDY    68  66  94 CALM      29.99F VSB 1
$$

PAZ004>006-010>012-017>019-024>028-033>037-041-042-045-046-049>053-230800-
CENTRAL PENNSYLVANIA

CITY           SKY/WX    TMP DP  RH WIND       PRES   REMARKS
BRADFORD       CLOUDY    65  64  97 CALM      30.03S FOG
DUBOIS         FOG       66  65  96 E5        30.01S VSB 1/4
CLEARFIELD     FOG       66  66 100 CALM      30.01F VSB 1/4
JOHNSTOWN      CLOUDY    68  65  90 S7        30.03F FOG
ALTOONA        CLOUDY    69  68  96 CALM      30.02S FOG
STATE COLLEGE  CLOUDY    68  67  95 CALM      30.00F FOG
WILLIAMSPORT   CLOUDY    67  64  90 E9        29.99S
SELINSGROVE    CLOUDY    69  65  86 CALM      30.01S
FT INDIANTOWN  DRIZZLE   66  66 100 NE5       30.03S
CAPITAL CITY   CLOUDY    70  62  76 E10       30.01S
HARRISBURG     CLOUDY    71  62  73 E7        30.00F
YORK           CLOUDY    69  64  84 E5        30.01S
$$

PAZ038>040-043-044-047-048-054-055-060>062-067>071-230800-
EASTERN PENNSYLVANIA

CITY           SKY/WX    TMP DP  RH WIND       PRES   REMARKS
SCRANTON       CLOUDY    66  59  78 CALM      30.04F
MOUNT POCONO   CLOUDY    60  58  92 E8        30.07F
ALLENTOWN      CLOUDY    67  61  81 NE3       30.04S
QUAKERTOWN*    CLOUDY    64  63  94 MISG      30.05S
READING        LGT RAIN  69  59  70 E5        30.01F
LANCASTER      CLOUDY    67  60  78 SE6       30.02S
COATESVILLE    CLOUDY    64  64 100 E9        30.04S
POTTSTOWN      CLOUDY    65  60  84 CALM      30.04F
BLUE BELL      MOCLDY    63  63 100 CALM      30.02S
DOYLESTOWN     PTCLDY    64  62  93 CALM      30.03S
WILLOW GROVE   NOT AVBL
NORTH PHILA    PTCLDY    67  61  81 E6        30.03F
PHILADELPHIA   MOCLDY    67  62  84 E6        30.02F
$$


USA.gov is the U.S. government's official web portal to all federal, state and local government web resources and services.